Marathon, FL

7:06 AM EDT on March 28, 2017 (GMT -0400)
Florida Keys Marathon

Weather History for KMTH - October, 2011

Change the Weather History Date:

Sunday, October 16, 2011

  Actual Average Record
Temperature  
Mean Temperature 78 °F 81 °F  
Max Temperature 82 °F 86 °F 89 °F (2007)
Min Temperature 74 °F 76 °F 37 °F (1996)
Degree Days  
Heating Degree Days 0 0  
Month to date heating degree days 0 0  
Since 1 July heating degree days 0 0  
Cooling Degree Days 13 16  
Month to date cooling degree days 246 272  
Year to date cooling degree days 4586 4226  
Growing Degree Days 26 (Base 50)    
Moisture  
Dew Point 74 °F    
Average Humidity 87    
Maximum Humidity 100    
Minimum Humidity 74    
Precipitation  
Precipitation 0.96 in 0.12 in 1.29 in (2005)
Month to date precipitation 7.44 2.73  
Year to date precipitation 22.61 39.28  
Snow  
Snow 0.00 in - - ()
Month to date snowfall 0.0  
Since 1 July snowfall 0.0  
Since 1 September snowfall 0.0  
Snow Depth 0.00 in    
Sea Level Pressure  
Sea Level Pressure 29.94 in    
Wind  
Wind Speed 13 mph (ENE)    
Max Wind Speed 28 mph    
Max Gust Speed 35 mph    
Visibility 7 miles    
Events Rain    
T = Trace of Precipitation, MM = Missing Value Source: NWS Daily Summary

Daily Weather History Graph

Daily Weather History Graph

Search for Another Location

Airport or City:

Trip Planner

Search our weather history database for the weather conditions in past years. The results will help you decide how hot, cold, wet, or windy it might be!

Date:

Astronomy

Oct. 16, 2011 Rise Set
Actual Time 7:22 AM EDT 6:56 PM EDT
Civil Twilight 6:59 AM EDT 7:19 PM EDT
Nautical Twilight 6:32 AM EDT 7:46 PM EDT
Astronomical Twilight 6:06 AM EDT 8:12 PM EDT
Moon 10:07 PM EDT (10/16) 11:12 AM EDT (10/16)
Length of Visible Light 12h 20m
Length of Day
11h 34m
Waning Gibbous, 82% of the Moon is Illuminated
Oct 16
Waning Gibbous
Oct 19
Last Quarter
Oct 26
New
Nov 2
First Quarter
Nov 10
Full

Hourly Weather History & Observations

Time (EDT) Temp. Heat Index Dew Point Humidity Pressure Visibility Wind Dir Wind Speed Gust Speed Precip Events Conditions
12:53 AM 79.0 °F - 73.0 °F 82% 29.97 in 10.0 mi East 11.5 mph 19.6 mph 0.00 in   Scattered Clouds
1:53 AM 80.1 °F 83.6 °F 71.1 °F 74% 29.94 in 10.0 mi East 11.5 mph 20.7 mph N/A   Partly Cloudy
2:53 AM 80.1 °F 84.2 °F 73.0 °F 79% 29.94 in 10.0 mi East 10.4 mph - N/A   Mostly Cloudy
3:53 AM 80.1 °F 84.5 °F 73.9 °F 81% 29.92 in 10.0 mi East 9.2 mph 17.3 mph N/A   Mostly Cloudy
4:53 AM 80.1 °F 84.2 °F 73.0 °F 79% 29.91 in 10.0 mi ENE 12.7 mph 20.7 mph N/A   Mostly Cloudy
5:53 AM 80.1 °F 84.5 °F 73.9 °F 81% 29.92 in 10.0 mi East 10.4 mph 19.6 mph N/A   Mostly Cloudy
6:53 AM 80.1 °F 84.2 °F 73.0 °F 79% 29.94 in 10.0 mi ENE 10.4 mph - N/A   Mostly Cloudy
7:53 AM 75.9 °F - 73.9 °F 94% 29.96 in 8.0 mi ENE 16.1 mph - 0.04 in   Overcast
8:53 AM 77.0 °F - 75.0 °F 94% 29.99 in 9.0 mi ENE 16.1 mph 23.0 mph 0.02 in   Overcast
9:41 AM 75.2 °F - 73.4 °F 94% 29.99 in 9.0 mi ENE 13.8 mph 23.0 mph 0.00 in   Overcast
9:53 AM 78.1 °F - 73.9 °F 87% 29.99 in 10.0 mi ENE 11.5 mph - 0.00 in   Mostly Cloudy
10:10 AM 78.8 °F - 75.2 °F 89% 29.99 in 8.0 mi ENE 16.1 mph - N/A   Scattered Clouds
10:53 AM 79.0 °F - 75.0 °F 88% 29.99 in 10.0 mi ENE 15.0 mph - N/A   Partly Cloudy
11:53 AM 79.0 °F - 73.0 °F 82% 29.99 in 10.0 mi NE 17.3 mph 24.2 mph N/A   Mostly Cloudy
12:01 PM 78.8 °F - 73.4 °F 83% 29.99 in 10.0 mi NE 17.3 mph 26.5 mph N/A   Mostly Cloudy
12:44 PM 75.2 °F - 73.4 °F 94% 29.98 in 1.8 mi NE 24.2 mph 34.5 mph 0.05 in Rain Light Rain
12:53 PM 75.9 °F - 73.9 °F 94% 29.97 in 3.0 mi ENE 20.7 mph 29.9 mph 0.05 in Rain Light Rain
1:05 PM 75.2 °F - 73.4 °F 94% 29.97 in 9.0 mi ENE 19.6 mph 29.9 mph 0.00 in   Overcast
1:53 PM 77.0 °F - 73.9 °F 90% 29.94 in 10.0 mi NE 18.4 mph 25.3 mph 0.00 in   Overcast
2:45 PM 77.0 °F - 73.4 °F 89% 29.91 in 7.0 mi ENE 20.7 mph 28.8 mph 0.00 in Rain Light Rain
2:53 PM 75.9 °F - 73.9 °F 94% 29.91 in 10.0 mi ENE 16.1 mph 28.8 mph 0.00 in   Overcast
3:20 PM 75.2 °F - 73.4 °F 94% 29.91 in 7.0 mi ENE 16.1 mph - 0.02 in Rain Light Rain
3:53 PM 77.0 °F - 75.0 °F 94% 29.90 in 4.0 mi ENE 12.7 mph 21.9 mph 0.05 in Rain Rain
4:35 PM 75.2 °F - 75.2 °F 100% 29.90 in 2.0 mi ESE 10.4 mph 20.7 mph 0.03 in Rain Heavy Rain
4:42 PM 75.2 °F - 75.2 °F 100% 29.90 in 1.5 mi ESE 11.5 mph 20.7 mph 0.06 in Rain Heavy Rain
4:48 PM 75.2 °F - 75.2 °F 100% 29.90 in 2.0 mi East 11.5 mph 19.6 mph 0.08 in Rain Rain
4:53 PM 75.9 °F - 75.0 °F 97% 29.90 in 1.5 mi East 11.5 mph 19.6 mph 0.13 in Rain Heavy Rain
5:06 PM 75.2 °F - 75.2 °F 100% 29.90 in 1.2 mi East 10.4 mph 18.4 mph 0.11 in Rain Heavy Rain
5:12 PM 75.2 °F - 75.2 °F 100% 29.90 in 3.0 mi East 9.2 mph 20.7 mph 0.11 in Rain Light Rain
5:44 PM 75.2 °F - 75.2 °F 100% 29.91 in 5.0 mi East 11.5 mph 18.4 mph 0.14 in Rain Rain
5:53 PM 75.9 °F - 75.0 °F 97% 29.91 in 5.0 mi East 9.2 mph - 0.14 in Rain Light Rain
6:02 PM 75.2 °F - 75.2 °F 100% 29.91 in 4.0 mi ENE 10.4 mph - 0.02 in Rain Rain
6:10 PM 75.2 °F - 75.2 °F 100% 29.91 in 6.0 mi ENE 12.7 mph - 0.02 in Rain Light Rain
6:53 PM 75.0 °F - 73.9 °F 96% 29.91 in 5.0 mi East 13.8 mph 21.9 mph 0.06 in Rain Light Rain
7:00 PM 73.4 °F - 73.4 °F 100% 29.91 in 2.5 mi East 12.7 mph 21.9 mph 0.06 in Rain Heavy Rain
7:12 PM 75.2 °F - 73.4 °F 94% 29.92 in 5.0 mi ENE 12.7 mph 21.9 mph 0.08 in Rain Light Rain
7:53 PM 75.0 °F - 75.0 °F 100% 29.93 in 7.0 mi East 15.0 mph 23.0 mph 0.16 in Rain Light Rain
8:38 PM 75.2 °F - 75.2 °F 100% 29.93 in 9.0 mi ENE 9.2 mph - 0.01 in Rain Light Rain
8:53 PM 75.9 °F - 75.0 °F 97% 29.93 in 10.0 mi East 10.4 mph 16.1 mph 0.01 in Rain Light Rain
9:53 PM 73.9 °F - 73.0 °F 97% 29.94 in 9.0 mi East 9.2 mph - 0.07 in Rain Light Rain
10:27 PM 75.2 °F - 73.4 °F 94% 29.95 in 2.5 mi ENE 17.3 mph 24.2 mph 0.10 in Rain Heavy Rain
10:40 PM 75.2 °F - 73.4 °F 94% 29.95 in 10.0 mi East 11.5 mph 19.6 mph 0.11 in Rain Light Rain
10:53 PM 75.0 °F - 75.0 °F 100% 29.95 in 10.0 mi East 12.7 mph - 0.11 in   Mostly Cloudy
11:53 PM 75.0 °F - 73.0 °F 94% 29.94 in 5.0 mi ENE 12.7 mph - 0.03 in Rain Light Rain